ARES01 EPDE-EPDE

Flight info

Callsign ARES01
Flight time 1h 17m
Altitude 24000
Route DCT TDN DCT SOWEX DCT KUKAM DCT KAK STAY1/0010 DCT LUMVE DCT WCL STAY2/0010 DCT KUKAM DCT SOWEX DCT TDN
Aircraft M346/L-S/C

Departure

Time 2026-05-05 19:34
Airport Deblin Military Air Base (EPDE)

Arrival

Time 2026-05-05 20:51
Airport Deblin Military Air Base (EPDE)
Time Latitude Longitude Altitude Speed Heading
2026-05-05 19:27 51.55549 21.87739 385 ft 0 kts 15°
2026-05-05 19:31 51.55597 21.87760 384 ft 20 kts 15°
2026-05-05 19:31 51.55590 21.87915 385 ft 2 kts 120°
2026-05-05 19:31 51.55589 21.87918 385 ft 0 kts 121°
2026-05-05 19:33 51.55459 21.88261 382 ft 109 kts 121°
2026-05-05 19:33 51.54849 21.89923 620 ft 236 kts 121°
2026-05-05 19:34 51.53814 21.92634 1607 ft 322 kts 130°
2026-05-05 19:34 51.51969 21.95052 2910 ft 367 kts 159°
2026-05-05 19:34 51.49480 21.95568 5019 ft 362 kts 189°
2026-05-05 19:35 51.44787 21.91844 8247 ft 389 kts 213°
2026-05-05 19:35 51.42675 21.89155 9886 ft 393 kts 227°
2026-05-05 19:35 51.41110 21.85505 10895 ft 406 kts 244°
2026-05-05 19:35 51.40084 21.81293 12224 ft 398 kts 250°
2026-05-05 19:36 51.39543 21.78531 13557 ft 390 kts 252°
2026-05-05 19:36 51.38494 21.74605 15137 ft 377 kts 242°
2026-05-05 19:36 51.37330 21.70890 16685 ft 369 kts 242°
2026-05-05 19:36 51.36133 21.67262 18140 ft 366 kts 239°
2026-05-05 19:37 51.34899 21.63762 19605 ft 357 kts 239°
2026-05-05 19:37 51.33689 21.60302 21081 ft 353 kts 240°
2026-05-05 19:37 51.32523 21.56885 22565 ft 347 kts 241°
2026-05-05 19:37 51.31381 21.53541 23870 ft 346 kts 241°
2026-05-05 19:38 51.30184 21.50067 23934 ft 372 kts 242°
2026-05-05 19:38 51.28934 21.46272 23819 ft 399 kts 242°
2026-05-05 19:38 51.27585 21.42261 23809 ft 419 kts 242°
2026-05-05 19:38 51.26153 21.38090 23796 ft 436 kts 240°
2026-05-05 19:39 51.24639 21.33878 23790 ft 450 kts 240°
2026-05-05 19:39 51.23065 21.29482 23803 ft 462 kts 240°
2026-05-05 19:39 51.21467 21.24955 23796 ft 472 kts 241°
2026-05-05 19:39 51.19879 21.20328 23797 ft 480 kts 241°
2026-05-05 19:40 51.18276 21.15611 23789 ft 486 kts 242°
2026-05-05 19:40 51.16676 21.10832 23770 ft 489 kts 242°
2026-05-05 19:40 51.15064 21.06091 23779 ft 484 kts 241°
2026-05-05 19:40 51.13431 21.01427 23798 ft 482 kts 240°
2026-05-05 19:41 51.11828 20.96728 23803 ft 483 kts 242°
2026-05-05 19:41 51.10251 20.91999 23787 ft 484 kts 243°
2026-05-05 19:41 51.08718 20.87216 23799 ft 485 kts 242°
2026-05-05 19:41 51.07101 20.82499 23780 ft 487 kts 240°
2026-05-05 19:42 51.05438 20.77814 23804 ft 487 kts 240°
2026-05-05 19:42 51.03805 20.73094 23802 ft 488 kts 240°
2026-05-05 19:42 51.02122 20.68407 23791 ft 489 kts 240°
2026-05-05 19:42 51.00445 20.63698 23813 ft 489 kts 240°
2026-05-05 19:43 50.98779 20.58977 23787 ft 490 kts 241°
2026-05-05 19:43 50.97157 20.54298 23796 ft 491 kts 241°
2026-05-05 19:43 50.95548 20.49517 23807 ft 490 kts 242°
2026-05-05 19:43 50.93935 20.44734 23773 ft 491 kts 242°
2026-05-05 19:44 50.92320 20.39959 23808 ft 491 kts 242°
2026-05-05 19:44 50.90685 20.35178 23558 ft 498 kts 241°
2026-05-05 19:44 50.88998 20.30304 22588 ft 509 kts 241°
2026-05-05 19:44 50.87280 20.25405 21342 ft 507 kts 240°
2026-05-05 19:45 50.85559 20.20541 19922 ft 504 kts 240°
2026-05-05 19:45 50.83856 20.15750 18417 ft 494 kts 239°
2026-05-05 19:45 50.82168 20.11077 16927 ft 484 kts 239°
2026-05-05 19:45 50.80494 20.06518 15634 ft 474 kts 237°
2026-05-05 19:46 50.78047 20.03447 14277 ft 453 kts 192°
2026-05-05 19:46 50.74966 20.03953 13160 ft 447 kts 167°
2026-05-05 19:46 50.72005 20.05263 11962 ft 447 kts 164°
2026-05-05 19:46 50.68976 20.06350 11168 ft 437 kts 173°
2026-05-05 19:47 50.66004 20.06688 10285 ft 434 kts 179°
2026-05-05 19:47 50.62988 20.06887 9139 ft 427 kts 178°
2026-05-05 19:47 50.60203 20.07195 7995 ft 379 kts 177°
2026-05-05 19:47 50.57687 20.07375 6958 ft 345 kts 180°
2026-05-05 19:48 50.55386 20.07538 6112 ft 314 kts 179°
2026-05-05 19:48 50.53382 20.07777 6097 ft 260 kts 180°
2026-05-05 19:48 50.51722 20.07846 6036 ft 218 kts 182°
2026-05-05 19:48 50.50291 20.08064 6012 ft 207 kts 178°
2026-05-05 19:49 50.48835 20.08336 5992 ft 212 kts 179°
2026-05-05 19:49 50.47342 20.08497 5989 ft 218 kts 182°
2026-05-05 19:49 50.45814 20.08560 5972 ft 219 kts 183°
2026-05-05 19:49 50.44302 20.08637 5989 ft 216 kts 184°
2026-05-05 19:50 50.42802 20.08682 5985 ft 215 kts 183°
2026-05-05 19:50 50.41301 20.08718 5986 ft 216 kts 184°
2026-05-05 19:50 50.39762 20.08719 5567 ft 222 kts 184°
2026-05-05 19:50 50.38252 20.08726 5195 ft 207 kts 183°
2026-05-05 19:51 50.36835 20.08831 5064 ft 207 kts 182°
2026-05-05 19:51 50.35356 20.08927 5026 ft 220 kts 182°
2026-05-05 19:51 50.33821 20.09096 5008 ft 220 kts 179°
2026-05-05 19:51 50.32321 20.09359 5008 ft 220 kts 178°
2026-05-05 19:52 50.30789 20.09621 4976 ft 218 kts 179°
2026-05-05 19:52 50.29272 20.09832 4713 ft 225 kts 180°
2026-05-05 19:52 50.27717 20.10048 4221 ft 221 kts 180°
2026-05-05 19:52 50.26285 20.10260 4049 ft 195 kts 180°
2026-05-05 19:53 50.24955 20.10438 3940 ft 199 kts 180°
2026-05-05 19:53 50.23481 20.10616 3898 ft 224 kts 181°
2026-05-05 19:53 50.21965 20.10762 3865 ft 209 kts 181°
2026-05-05 19:53 50.20531 20.10911 3883 ft 204 kts 180°
2026-05-05 19:54 50.19086 20.11068 3882 ft 214 kts 180°
2026-05-05 19:54 50.17580 20.11198 3919 ft 219 kts 182°
2026-05-05 19:54 50.16049 20.11308 3913 ft 217 kts 182°
2026-05-05 19:54 50.14552 20.11395 3953 ft 221 kts 185°
2026-05-05 19:55 50.12973 20.11089 3975 ft 235 kts 208°
2026-05-05 19:55 50.11929 20.09235 3811 ft 244 kts 261°
2026-05-05 19:55 50.11749 20.06692 3536 ft 218 kts 256°
2026-05-05 19:55 50.11579 20.04633 3342 ft 169 kts 257°
2026-05-05 19:56 50.11444 20.02999 3130 ft 146 kts 253°
2026-05-05 19:56 50.11217 20.01436 3047 ft 146 kts 249°
2026-05-05 19:56 50.10954 19.99907 2965 ft 145 kts 249°
2026-05-05 19:56 50.10702 19.98391 2888 ft 145 kts 247°
2026-05-05 19:57 50.10434 19.96852 2709 ft 151 kts 251°
2026-05-05 19:57 50.10229 19.95239 2571 ft 153 kts 253°
2026-05-05 19:57 50.09980 19.93618 2471 ft 154 kts 250°
2026-05-05 19:57 50.09718 19.92011 2344 ft 152 kts 254°
2026-05-05 19:58 50.09506 19.90398 2190 ft 146 kts 252°
2026-05-05 19:58 50.09285 19.88886 2072 ft 141 kts 251°
2026-05-05 19:58 50.09052 19.87425 1885 ft 142 kts 253°
2026-05-05 19:58 50.08833 19.85875 1637 ft 147 kts 254°
2026-05-05 19:59 50.08599 19.84381 1404 ft 141 kts 255°
2026-05-05 19:59 50.08384 19.82889 1203 ft 139 kts 257°
2026-05-05 19:59 50.08182 19.81451 1018 ft 135 kts 257°
2026-05-05 19:59 50.07986 19.80054 891 ft 136 kts 257°
2026-05-05 20:00 50.07748 19.78190 989 ft 226 kts 258°
2026-05-05 20:00 50.07332 19.75414 1434 ft 282 kts 256°
2026-05-05 20:00 50.06834 19.72519 2046 ft 273 kts 252°
2026-05-05 20:00 50.06306 19.69759 2764 ft 260 kts 250°
2026-05-05 20:01 50.05824 19.67094 3450 ft 258 kts 251°
2026-05-05 20:01 50.05670 19.64301 4357 ft 264 kts 269°
2026-05-05 20:01 50.06155 19.61496 5059 ft 281 kts 292°
2026-05-05 20:01 50.07532 19.59050 5435 ft 328 kts 320°
2026-05-05 20:02 50.09510 19.57112 6242 ft 339 kts 324°
2026-05-05 20:02 50.11627 19.55157 7486 ft 372 kts 325°
2026-05-05 20:02 50.13917 19.52926 8912 ft 403 kts 325°
2026-05-05 20:02 50.16399 19.50671 10416 ft 421 kts 329°
2026-05-05 20:03 50.18949 19.48310 11943 ft 430 kts 323°
2026-05-05 20:03 50.21342 19.45520 13717 ft 430 kts 325°
2026-05-05 20:03 50.23586 19.42545 15410 ft 421 kts 309°
2026-05-05 20:03 50.25348 19.38895 16845 ft 421 kts 303°
2026-05-05 20:04 50.26991 19.35085 18182 ft 423 kts 301°
2026-05-05 20:04 50.28599 19.31209 19212 ft 427 kts 301°
2026-05-05 20:04 50.30144 19.27243 20237 ft 427 kts 302°
2026-05-05 20:04 50.31825 19.23392 21200 ft 429 kts 303°
2026-05-05 20:05 50.33503 19.19518 22073 ft 430 kts 301°
2026-05-05 20:05 50.35160 19.15567 22344 ft 446 kts 302°
2026-05-05 20:05 50.36959 19.11507 22445 ft 458 kts 304°
2026-05-05 20:05 50.38689 19.07403 23070 ft 461 kts 300°
2026-05-05 20:06 50.40416 19.03068 22894 ft 475 kts 301°
2026-05-05 20:06 50.42206 18.98636 22875 ft 487 kts 300°
2026-05-05 20:06 50.44012 18.94072 22847 ft 496 kts 301°
2026-05-05 20:06 50.45887 18.89471 22844 ft 504 kts 300°
2026-05-05 20:07 50.47817 18.84835 22855 ft 511 kts 302°
2026-05-05 20:07 50.49845 18.80197 22792 ft 520 kts 306°
2026-05-05 20:07 50.52098 18.75702 22880 ft 527 kts 309°
2026-05-05 20:07 50.54559 18.71356 22823 ft 536 kts 309°
2026-05-05 20:08 50.56925 18.66768 22840 ft 545 kts 306°
2026-05-05 20:08 50.59116 18.61849 22856 ft 551 kts 300°
2026-05-05 20:08 50.61096 18.56678 22917 ft 551 kts 298°
2026-05-05 20:08 50.62982 18.51443 22917 ft 547 kts 298°
2026-05-05 20:09 50.64787 18.46162 22867 ft 545 kts 296°
2026-05-05 20:09 50.66528 18.40914 22027 ft 551 kts 297°
2026-05-05 20:09 50.68497 18.35691 20905 ft 555 kts 301°
2026-05-05 20:09 50.70564 18.30523 19597 ft 559 kts 301°
2026-05-05 20:10 50.72638 18.25327 18220 ft 554 kts 301°
2026-05-05 20:10 50.74599 18.20214 17029 ft 535 kts 298°
2026-05-05 20:10 50.76250 18.15036 15582 ft 521 kts 293°
2026-05-05 20:10 50.77693 18.09814 13972 ft 516 kts 292°
2026-05-05 20:11 50.79133 18.04682 12805 ft 506 kts 292°
2026-05-05 20:11 50.80436 17.99578 11887 ft 494 kts 287°
2026-05-05 20:11 50.81623 17.94494 10683 ft 491 kts 295°
2026-05-05 20:11 50.83111 17.89721 9436 ft 478 kts 294°
2026-05-05 20:12 50.84479 17.84976 8064 ft 470 kts 292°
2026-05-05 20:12 50.85758 17.80263 6757 ft 462 kts 291°
2026-05-05 20:12 50.86964 17.75696 5899 ft 448 kts 290°
2026-05-05 20:12 50.88164 17.71200 5496 ft 429 kts 291°
2026-05-05 20:13 50.89277 17.66909 4943 ft 419 kts 289°
2026-05-05 20:13 50.90363 17.62714 4867 ft 406 kts 290°
2026-05-05 20:13 50.91529 17.58707 4879 ft 396 kts 292°
2026-05-05 20:13 50.92706 17.54803 4889 ft 389 kts 293°
2026-05-05 20:14 50.93783 17.50898 4877 ft 385 kts 290°
2026-05-05 20:14 50.94785 17.47007 4969 ft 379 kts 290°
2026-05-05 20:14 50.95719 17.43108 4989 ft 377 kts 287°
2026-05-05 20:14 50.96456 17.39135 5014 ft 375 kts 282°
2026-05-05 20:15 50.97029 17.35105 5010 ft 372 kts 279°
2026-05-05 20:15 50.97503 17.31344 5015 ft 325 kts 281°
2026-05-05 20:15 50.98275 17.28189 5015 ft 291 kts 292°
2026-05-05 20:15 50.99162 17.25453 4876 ft 267 kts 295°
2026-05-05 20:16 50.99997 17.22990 4598 ft 241 kts 293°
2026-05-05 20:16 51.00658 17.20701 4386 ft 213 kts 290°
2026-05-05 20:16 51.01219 17.18729 4193 ft 175 kts 294°
2026-05-05 20:16 51.01665 17.17223 3899 ft 140 kts 293°
2026-05-05 20:17 51.02076 17.15742 3552 ft 157 kts 293°
2026-05-05 20:17 51.02530 17.14095 3312 ft 165 kts 294°
2026-05-05 20:17 51.03018 17.12396 3038 ft 167 kts 297°
2026-05-05 20:17 51.03484 17.10758 2784 ft 160 kts 296°
2026-05-05 20:18 51.03922 17.09140 2524 ft 159 kts 296°
2026-05-05 20:18 51.04382 17.07527 2329 ft 161 kts 300°
2026-05-05 20:18 51.04858 17.05960 2177 ft 155 kts 299°
2026-05-05 20:18 51.05316 17.04362 2045 ft 162 kts 301°
2026-05-05 20:19 51.05829 17.02764 1894 ft 166 kts 301°
2026-05-05 20:19 51.06346 17.01120 1708 ft 164 kts 302°
2026-05-05 20:19 51.06846 16.99507 1605 ft 158 kts 302°
2026-05-05 20:19 51.07302 16.98031 1355 ft 142 kts 303°
2026-05-05 20:20 51.07723 16.96675 1107 ft 133 kts 301°
2026-05-05 20:20 51.08125 16.95299 829 ft 147 kts 292°
2026-05-05 20:20 51.08616 16.93906 771 ft 148 kts 302°
2026-05-05 20:20 51.09080 16.92391 732 ft 155 kts 300°
2026-05-05 20:21 51.09558 16.90809 632 ft 170 kts 300°
2026-05-05 20:21 51.10299 16.88418 667 ft 318 kts 298°
2026-05-05 20:21 51.11473 16.84772 1605 ft 395 kts 303°
2026-05-05 20:21 51.13954 16.82719 3214 ft 450 kts 10°
2026-05-05 20:22 51.15433 16.86391 5411 ft 446 kts 101°
2026-05-05 20:22 51.13608 16.90195 7706 ft 445 kts 142°
2026-05-05 20:22 51.11153 16.93344 10422 ft 460 kts 142°
2026-05-05 20:22 51.08669 16.96648 13060 ft 470 kts 141°
2026-05-05 20:23 51.07018 16.98892 14723 ft 472 kts 141°
2026-05-05 20:23 51.06063 17.03153 17552 ft 431 kts 84°
2026-05-05 20:23 51.06463 17.07956 19395 ft 447 kts 84°
2026-05-05 20:23 51.06910 17.13038 20375 ft 474 kts 82°
2026-05-05 20:24 51.07329 17.18295 21791 ft 483 kts 87°
2026-05-05 20:24 51.07114 17.23613 23277 ft 486 kts 98°
2026-05-05 20:24 51.06746 17.29020 24229 ft 497 kts 98°
2026-05-05 20:24 51.06314 17.34497 25284 ft 498 kts 99°
2026-05-05 20:25 51.05898 17.39944 26566 ft 497 kts 98°
2026-05-05 20:25 51.05450 17.45254 28216 ft 478 kts 99°
2026-05-05 20:25 51.04996 17.50438 29682 ft 473 kts 99°
2026-05-05 20:25 51.04513 17.55621 30268 ft 481 kts 99°
2026-05-05 20:26 51.04026 17.60977 30173 ft 498 kts 99°
2026-05-05 20:26 51.03496 17.66426 30594 ft 502 kts 100°
2026-05-05 20:26 51.02984 17.71964 30832 ft 511 kts 96°
2026-05-05 20:26 51.02646 17.77640 30945 ft 522 kts 97°
2026-05-05 20:27 51.02342 17.83463 30989 ft 536 kts 97°
2026-05-05 20:27 51.01768 17.89399 30979 ft 553 kts 102°
2026-05-05 20:27 51.01036 17.95500 30978 ft 572 kts 102°
2026-05-05 20:27 51.00333 18.01780 30853 ft 577 kts 102°
2026-05-05 20:28 50.99560 18.07980 30821 ft 579 kts 101°
2026-05-05 20:28 50.98436 18.20649 30845 ft 579 kts 98°
2026-05-05 20:29 50.97584 18.33323 30756 ft 577 kts 97°
2026-05-05 20:29 50.96663 18.45964 30792 ft 576 kts 98°
2026-05-05 20:30 50.95589 18.58587 30767 ft 578 kts 98°
2026-05-05 20:30 50.94606 18.71133 30761 ft 577 kts 98°
2026-05-05 20:31 50.93533 18.83767 30790 ft 577 kts 98°
2026-05-05 20:31 50.92275 18.96340 30757 ft 577 kts 101°
2026-05-05 20:32 50.90940 19.08863 30795 ft 576 kts 100°
2026-05-05 20:32 50.89777 19.21384 30769 ft 577 kts 98°
2026-05-05 20:33 50.88475 19.33888 30781 ft 575 kts 101°
2026-05-05 20:33 50.87205 19.46362 30801 ft 575 kts 99°
2026-05-05 20:34 50.85875 19.58850 30793 ft 574 kts 102°
2026-05-05 20:34 50.84427 19.71246 30814 ft 574 kts 100°
2026-05-05 20:35 50.83188 19.83699 30771 ft 575 kts 99°
2026-05-05 20:35 50.82019 19.96325 30113 ft 580 kts 98°
2026-05-05 20:35 50.81448 20.02580 29594 ft 584 kts 98°
2026-05-05 20:36 50.81629 20.08793 28521 ft 557 kts 60°
2026-05-05 20:36 50.83557 20.14283 26884 ft 585 kts 60°
2026-05-05 20:36 50.85575 20.19905 24572 ft 583 kts 59°
2026-05-05 20:36 50.87668 20.25391 22708 ft 581 kts 58°
2026-05-05 20:37 50.89810 20.30786 21154 ft 572 kts 58°
2026-05-05 20:37 50.91900 20.36001 19996 ft 557 kts 58°
2026-05-05 20:37 50.93912 20.41037 19896 ft 520 kts 60°
2026-05-05 20:37 50.95665 20.45903 19830 ft 495 kts 60°
2026-05-05 20:38 50.97404 20.50430 19806 ft 476 kts 60°
2026-05-05 20:38 50.99055 20.54925 19812 ft 462 kts 63°
2026-05-05 20:38 51.00512 20.59395 19836 ft 461 kts 65°
2026-05-05 20:38 51.01931 20.64055 19819 ft 473 kts 63°
2026-05-05 20:39 51.03393 20.68743 19823 ft 481 kts 65°
2026-05-05 20:39 51.04957 20.73519 19826 ft 489 kts 63°
2026-05-05 20:39 51.06587 20.78316 19812 ft 496 kts 62°
2026-05-05 20:39 51.08245 20.83187 19803 ft 500 kts 63°
2026-05-05 20:40 51.09878 20.88075 19819 ft 513 kts 63°
2026-05-05 20:40 51.11582 20.93182 19834 ft 526 kts 63°
2026-05-05 20:40 51.13378 20.98331 19832 ft 534 kts 61°
2026-05-05 20:40 51.15231 21.03441 19821 ft 540 kts 61°
2026-05-05 20:41 51.17040 21.08751 19802 ft 545 kts 64°
2026-05-05 20:41 51.18648 21.14254 19818 ft 549 kts 64°
2026-05-05 20:41 51.20280 21.19735 19746 ft 555 kts 63°
2026-05-05 20:41 51.22209 21.25111 19773 ft 559 kts 60°
2026-05-05 20:42 51.24203 21.30423 19786 ft 565 kts 59°
2026-05-05 20:42 51.26240 21.35862 19779 ft 572 kts 62°
2026-05-05 20:42 51.28143 21.41435 19780 ft 579 kts 64°
2026-05-05 20:42 51.29841 21.47336 19766 ft 587 kts 65°
2026-05-05 20:43 51.31746 21.53195 19323 ft 593 kts 63°
2026-05-05 20:43 51.33628 21.59003 18248 ft 581 kts 64°
2026-05-05 20:43 51.35367 21.64624 17430 ft 561 kts 65°
2026-05-05 20:43 51.37155 21.70107 16417 ft 544 kts 63°
2026-05-05 20:44 51.38928 21.75405 15146 ft 536 kts 63°
2026-05-05 20:44 51.40634 21.80621 13087 ft 533 kts 65°
2026-05-05 20:44 51.42579 21.85694 11722 ft 521 kts 35°
2026-05-05 20:44 51.45957 21.86290 9795 ft 500 kts 343°
2026-05-05 20:45 51.51997 21.83561 8328 ft 397 kts 341°
2026-05-05 20:45 51.54535 21.82251 7310 ft 373 kts 339°
2026-05-05 20:45 51.56972 21.81055 5940 ft 360 kts 341°
2026-05-05 20:46 51.59317 21.80043 4928 ft 337 kts 342°
2026-05-05 20:46 51.61024 21.78601 4511 ft 266 kts 251°
2026-05-05 20:46 51.59264 21.78237 3493 ft 312 kts 146°
2026-05-05 20:46 51.58111 21.81151 2506 ft 303 kts 123°
2026-05-05 20:47 51.57115 21.83971 1731 ft 284 kts 127°
2026-05-05 20:47 51.56080 21.86572 1220 ft 266 kts 123°
2026-05-05 20:47 51.55771 21.89221 989 ft 247 kts 41°
2026-05-05 20:47 51.56920 21.88916 909 ft 166 kts 307°
2026-05-05 20:48 51.57538 21.87589 869 ft 139 kts 276°
2026-05-05 20:48 51.57192 21.86253 995 ft 141 kts 210°
2026-05-05 20:48 51.56266 21.86352 776 ft 138 kts 146°
2026-05-05 20:48 51.55583 21.88007 606 ft 266 kts 122°
2026-05-05 20:49 51.55481 21.90802 1807 ft 329 kts 11°
2026-05-05 20:49 51.57231 21.89288 2170 ft 278 kts 308°
2026-05-05 20:49 51.58367 21.87243 2264 ft 200 kts 302°
2026-05-05 20:49 51.58586 21.85596 2016 ft 141 kts 250°
2026-05-05 20:50 51.57915 21.84362 1810 ft 157 kts 211°
2026-05-05 20:50 51.56947 21.84479 1383 ft 150 kts 149°
2026-05-05 20:50 51.56393 21.85833 861 ft 144 kts 126°
2026-05-05 20:50 51.55918 21.87064 524 ft 114 kts 124°
2026-05-05 20:51 51.55534 21.88094 384 ft 98 kts 121°
2026-05-05 20:51 51.55268 21.88784 384 ft 35 kts 120°
2026-05-05 20:51 51.55203 21.88958 385 ft 0 kts 122°